contact:dominique.lefevre@mio.osupytheas.fr, maurice.libes@osupytheas.fr, didier.mallarino@osupytheas.fr
Project:EMSO http://www.emso-fr.org/EMSO-France
Depth: 2436.0 m
Title:EMSO Ligure Ouest : Data MII capteur AQUADOPP
Date,Latitude,Longitude,X_East,Y_North,Z_Up,Amplitude_X,Amplitude_Y,Amplitude_Z,Batterie,SoundSpeed,Heading,Pitch,Roll,Pressure,TIS,Speed,Direction
, degrees North, degrees East, m.s-1, m.s-1,m.s-1, 1, 1, 1, Volt, m.s-1, degree, degree, degree, dbar, degree_C, m.s-1, degree
2022-07-05T08:22:03,42.805,6.029,-0.043,-0.058,-0.034,108.0,106.0,104.0,13.4,1505.2,320.8,-0.8,1.8,2470.897,13.29,0.072,216.6
2022-07-05T08:28:03,42.805,6.029,-0.028,-0.033,-0.041,105.0,106.0,103.0,13.4,1505.2,331.3,-0.8,1.8,2470.845,13.29,0.043,220.3
2022-07-05T08:31:03,42.805,6.029,-0.056,-0.035,-0.024,107.0,106.0,103.0,13.3,1505.2,323.5,-0.7,1.8,2470.861,13.29,0.066,238.0
2022-07-05T08:34:03,42.805,6.029,-0.042,-0.043,-0.033,106.0,104.0,104.0,13.3,1505.2,329.4,-0.7,1.8,2470.85,13.29,0.06,224.3
2022-07-05T08:37:03,42.805,6.029,-0.053,-0.062,-0.05,106.0,107.0,102.0,13.3,1505.2,326.8,-0.8,1.8,2470.875,13.29,0.081,220.5
2022-07-05T08:40:03,42.805,6.029,-0.026,-0.039,-0.045,106.0,105.0,103.0,13.4,1505.2,324.2,-0.8,1.8,2470.867,13.29,0.046,213.7
2022-07-05T08:43:03,42.805,6.029,-0.047,-0.022,0.0,106.0,105.0,104.0,13.4,1505.2,324.9,-0.7,1.8,2470.865,13.29,0.051,244.9
2022-07-05T08:46:03,42.805,6.029,-0.034,-0.038,-0.048,106.0,106.0,103.0,13.4,1505.2,324.5,-0.7,1.8,2470.887,13.29,0.05,221.8
2022-07-05T08:49:03,42.805,6.029,-0.037,-0.047,-0.043,106.0,105.0,103.0,13.4,1505.2,325.5,-0.8,1.8,2470.865,13.29,0.059,218.2
2022-07-05T08:52:03,42.805,6.029,-0.036,-0.035,0.005,108.0,105.0,104.0,13.4,1505.2,320.0,-0.8,1.8,2470.848,13.29,0.05,225.8
2022-07-05T08:55:03,42.805,6.029,-0.041,-0.039,-0.045,107.0,105.0,103.0,13.4,1505.2,326.3,-0.8,1.8,2470.847,13.29,0.056,226.4
2022-07-05T08:58:03,42.805,6.029,-0.043,-0.033,-0.004,105.0,105.0,104.0,13.4,1505.2,329.1,-0.8,1.8,2470.902,13.29,0.054,232.5
2022-07-05T09:04:03,42.805,6.029,-0.047,-0.042,-0.055,106.0,105.0,104.0,13.4,1505.2,318.6,-0.8,1.8,2470.947,13.28,0.063,228.2
2022-07-05T09:07:03,42.805,6.029,-0.033,-0.05,-0.019,107.0,105.0,103.0,13.4,1505.2,327.6,-0.7,1.8,2470.921,13.28,0.059,213.4
2022-07-05T09:10:03,42.805,6.029,-0.026,-0.037,-0.038,107.0,105.0,104.0,13.4,1505.2,330.3,-0.7,1.8,2470.9,13.28,0.045,215.1
2022-07-05T09:13:03,42.805,6.029,-0.056,-0.04,-0.005,106.0,106.0,103.0,13.3,1505.2,325.8,-0.7,1.9,2470.891,13.28,0.068,234.5
2022-07-05T09:16:03,42.805,6.029,-0.047,-0.026,-0.026,105.0,106.0,103.0,13.4,1505.2,325.0,-0.8,1.8,2470.892,13.28,0.053,241.1
2022-07-05T09:19:03,42.805,6.029,-0.038,-0.05,-0.012,106.0,105.0,103.0,13.4,1505.2,326.4,-0.8,1.8,2470.884,13.28,0.062,217.2
2022-07-05T09:22:03,42.805,6.029,-0.045,-0.026,-0.045,106.0,106.0,103.0,13.4,1505.2,333.1,-0.8,1.8,2470.888,13.28,0.051,240.0
2022-07-05T09:25:03,42.805,6.029,-0.029,-0.037,0.011,106.0,105.0,104.0,13.4,1505.2,331.7,-0.7,1.8,2470.9,13.28,0.047,218.1
2022-07-05T09:28:03,42.805,6.029,-0.052,-0.046,-0.042,106.0,105.0,103.0,13.4,1505.2,327.4,-0.8,1.8,2470.888,13.28,0.069,228.5
2022-07-05T09:31:03,42.805,6.029,-0.042,-0.033,-0.062,107.0,104.0,103.0,13.4,1505.2,322.8,-0.7,1.8,2470.922,13.28,0.053,231.8
2022-07-05T09:34:03,42.805,6.029,-0.047,-0.034,-0.056,105.0,105.0,103.0,13.3,1505.2,327.9,-0.7,1.8,2470.885,13.28,0.058,234.1
2022-07-05T09:37:03,42.805,6.029,-0.07,-0.03,-0.008,105.0,106.0,103.0,13.3,1505.2,322.3,-0.8,1.8,2470.874,13.28,0.076,246.8
2022-07-05T09:40:03,42.805,6.029,-0.047,-0.064,-0.037,107.0,105.0,103.0,13.4,1505.2,320.6,-0.8,1.8,2470.939,13.28,0.079,216.3
2022-07-05T09:43:03,42.805,6.029,-0.06,-0.045,-0.022,105.0,105.0,103.0,13.4,1505.2,329.0,-0.8,1.9,2470.913,13.28,0.074,233.1
2022-07-05T09:46:03,42.805,6.029,-0.042,-0.02,-0.044,105.0,105.0,103.0,13.3,1505.2,332.4,-0.7,1.8,2470.858,13.28,0.046,244.5
2022-07-05T09:49:03,42.805,6.029,-0.072,-0.016,-0.033,105.0,105.0,103.0,13.4,1505.2,324.6,-0.7,1.8,2470.918,13.28,0.073,257.5
2022-07-05T09:52:03,42.805,6.029,-0.069,-0.03,-0.01,105.0,105.0,103.0,13.4,1505.2,329.9,-0.7,1.8,2470.885,13.28,0.075,246.5
2022-07-05T09:55:03,42.805,6.029,-0.059,-0.022,-0.018,105.0,106.0,102.0,13.3,1505.2,327.6,-0.8,1.8,2470.918,13.28,0.062,249.6
2022-07-05T09:58:03,42.805,6.029,-0.057,-0.028,-0.012,106.0,105.0,103.0,13.3,1505.2,325.6,-0.8,1.8,2470.928,13.28,0.063,243.8
2022-07-05T10:04:03,42.805,6.029,-0.064,-0.029,-0.047,106.0,105.0,103.0,13.4,1505.2,330.4,-0.7,1.8,2470.892,13.28,0.07,245.6
2022-07-05T10:07:03,42.805,6.029,-0.065,-0.021,-0.02,107.0,106.0,102.0,13.3,1505.2,324.5,-0.7,1.8,2470.934,13.28,0.068,252.1
2022-07-05T10:10:03,42.805,6.029,-0.048,-0.034,-0.022,106.0,106.0,102.0,13.4,1505.2,328.6,-0.8,1.8,2470.935,13.28,0.058,234.7
2022-07-05T10:13:03,42.805,6.029,-0.053,-0.031,-0.008,105.0,105.0,102.0,13.4,1505.2,325.5,-0.7,1.8,2470.94,13.28,0.061,239.7
2022-07-05T10:16:03,42.805,6.029,-0.041,-0.024,-0.017,107.0,105.0,102.0,13.4,1505.2,321.9,-0.7,1.8,2470.941,13.28,0.047,239.7
2022-07-05T10:19:03,42.805,6.029,-0.058,-0.04,-0.015,106.0,104.0,103.0,13.3,1505.2,327.3,-0.8,1.8,2470.936,13.28,0.07,235.4
2022-07-05T10:22:03,42.805,6.029,-0.043,-0.036,-0.01,106.0,105.0,102.0,13.4,1505.2,330.1,-0.8,1.8,2470.843,13.28,0.056,230.1
2022-07-05T10:25:03,42.805,6.029,-0.055,-0.023,0.002,106.0,106.0,102.0,13.4,1505.2,323.4,-0.8,1.8,2470.921,13.28,0.059,247.3
2022-07-05T10:28:03,42.805,6.029,-0.066,-0.014,-0.013,106.0,106.0,103.0,13.4,1505.2,326.3,-0.8,1.8,2470.938,13.28,0.067,258.0
2022-07-05T10:31:03,42.805,6.029,-0.068,-0.015,-0.021,107.0,105.0,102.0,13.4,1505.2,326.8,-0.8,1.8,2470.906,13.28,0.069,257.6
2022-07-05T10:34:03,42.805,6.029,-0.055,-0.004,-0.011,105.0,106.0,104.0,13.4,1505.2,329.5,-0.8,1.9,2470.864,13.28,0.055,265.8
2022-07-05T10:37:03,42.805,6.029,-0.064,-0.021,-0.011,106.0,106.0,102.0,13.4,1505.2,322.6,-0.7,1.8,2470.904,13.28,0.067,251.8
2022-07-05T10:40:03,42.805,6.029,-0.065,-0.027,-0.01,104.0,105.0,103.0,13.4,1505.2,327.6,-0.7,1.8,2470.902,13.28,0.07,247.4
2022-07-05T10:43:03,42.805,6.029,-0.06,-0.032,-0.023,106.0,105.0,103.0,13.3,1505.2,323.5,-0.8,1.8,2470.88,13.28,0.067,241.9
2022-07-05T10:46:03,42.805,6.029,-0.077,-0.03,-0.014,105.0,106.0,103.0,13.3,1505.2,320.2,-0.7,1.8,2470.893,13.28,0.082,248.7
2022-07-05T10:49:03,42.805,6.029,-0.045,-0.017,-0.025,106.0,104.0,103.0,13.4,1505.2,322.5,-0.7,1.8,2470.882,13.28,0.048,249.3
2022-07-05T10:52:03,42.805,6.029,-0.057,-0.015,-0.019,106.0,105.0,102.0,13.4,1505.2,327.7,-0.8,1.8,2470.921,13.28,0.058,255.3
2022-07-05T10:55:03,42.805,6.029,-0.031,-0.02,-0.037,105.0,106.0,103.0,13.4,1505.2,327.9,-0.8,1.8,2470.919,13.28,0.036,237.2
2022-07-05T10:58:03,42.805,6.029,-0.05,-0.041,-0.053,105.0,104.0,102.0,13.4,1505.2,322.6,-0.7,1.9,2470.852,13.28,0.064,230.7
2022-07-05T11:04:03,42.805,6.029,-0.06,-0.006,0.003,105.0,105.0,103.0,13.4,1505.2,330.5,-0.7,1.9,2470.916,13.28,0.06,264.3
2022-07-05T11:07:03,42.805,6.029,-0.063,-0.023,-0.037,105.0,104.0,103.0,13.4,1505.2,324.9,-0.8,1.8,2470.953,13.28,0.067,249.9
2022-07-05T11:10:03,42.805,6.029,-0.062,-0.024,-0.008,104.0,105.0,104.0,13.3,1505.2,321.1,-0.7,1.9,2470.931,13.28,0.066,248.8
2022-07-05T11:13:03,42.805,6.029,-0.066,-0.017,-0.018,105.0,104.0,103.0,13.3,1505.2,323.3,-0.8,1.8,2470.919,13.28,0.068,255.6
2022-07-05T11:16:03,42.805,6.029,-0.05,-0.018,-0.034,106.0,105.0,102.0,13.4,1505.2,320.3,-0.8,1.8,2470.899,13.28,0.053,250.2
2022-07-05T11:19:03,42.805,6.029,-0.054,-0.033,-0.052,105.0,104.0,103.0,13.4,1505.2,322.4,-0.7,1.9,2470.925,13.28,0.063,238.6
2022-07-05T11:22:03,42.805,6.029,-0.073,-0.035,-0.028,105.0,105.0,103.0,13.4,1505.2,325.7,-0.8,1.8,2470.886,13.28,0.08,244.4
2022-07-05T11:25:03,42.805,6.029,-0.05,-0.011,-0.024,106.0,104.0,103.0,13.4,1505.2,323.3,-0.7,1.8,2470.86,13.28,0.051,257.6
2022-07-05T11:28:03,42.805,6.029,-0.055,-0.022,-0.023,105.0,105.0,103.0,13.4,1505.2,332.2,-0.8,1.9,2470.897,13.28,0.059,248.2
2022-07-05T11:31:03,42.805,6.029,-0.063,-0.017,-0.047,105.0,106.0,102.0,13.4,1505.2,324.0,-0.7,1.8,2470.93,13.28,0.065,254.9
2022-07-05T11:34:03,42.805,6.029,-0.076,-0.029,-0.055,105.0,105.0,102.0,13.4,1505.2,323.6,-0.7,1.8,2470.898,13.28,0.081,249.1
2022-07-05T11:37:03,42.805,6.029,-0.055,-0.046,-0.053,106.0,103.0,102.0,13.4,1505.2,320.0,-0.7,1.8,2470.899,13.28,0.071,230.1
2022-07-05T11:40:03,42.805,6.029,-0.051,-0.021,-0.038,107.0,106.0,102.0,13.4,1505.2,327.5,-0.7,1.8,2470.885,13.28,0.055,247.6
2022-07-05T11:43:03,42.805,6.029,-0.078,-0.01,-0.027,106.0,105.0,103.0,13.4,1505.2,331.8,-0.8,1.8,2470.879,13.28,0.078,262.7
2022-07-05T11:46:03,42.805,6.029,-0.048,-0.013,-0.046,105.0,105.0,102.0,13.4,1505.2,323.5,-0.7,1.8,2470.875,13.28,0.049,254.8
2022-07-05T11:49:03,42.805,6.029,-0.024,-0.033,-0.017,105.0,104.0,103.0,13.4,1505.2,322.5,-0.8,1.8,2470.892,13.28,0.04,216.0
2022-07-05T11:52:03,42.805,6.029,-0.054,-0.02,-0.027,105.0,104.0,102.0,13.4,1505.2,326.5,-0.8,1.8,2470.867,13.28,0.057,249.7
2022-07-05T11:55:03,42.805,6.029,-0.062,-0.006,-0.029,106.0,105.0,103.0,13.4,1505.2,322.1,-0.8,1.8,2470.916,13.28,0.062,264.5
2022-07-05T11:58:03,42.805,6.029,-0.052,-0.014,-0.035,106.0,106.0,102.0,13.4,1505.2,327.0,-0.7,1.8,2470.877,13.28,0.053,254.9
2022-07-05T12:04:03,42.805,6.029,-0.077,-0.022,-0.055,106.0,104.0,102.0,13.4,1505.2,330.3,-0.8,1.8,2470.925,13.28,0.08,254.1
2022-07-05T12:07:03,42.805,6.029,-0.06,0.001,-0.024,105.0,105.0,102.0,13.4,1505.2,329.3,-0.8,1.8,2470.948,13.28,0.06,271.0
2022-07-05T12:10:03,42.805,6.029,-0.063,-0.012,0.003,106.0,105.0,102.0,13.4,1505.2,325.3,-0.7,1.8,2470.929,13.28,0.064,259.2
2022-07-05T12:13:03,42.805,6.029,-0.055,-0.027,-0.037,104.0,105.0,102.0,13.4,1505.2,320.7,-0.7,1.8,2470.927,13.28,0.061,243.9
2022-07-05T12:16:03,42.805,6.029,-0.069,0.002,-0.035,105.0,104.0,102.0,13.4,1505.2,328.6,-0.7,1.8,2470.908,13.28,0.069,271.7
2022-07-05T12:19:03,42.805,6.029,-0.075,-0.001,-0.028,104.0,105.0,103.0,13.4,1505.2,329.2,-0.8,1.8,2470.896,13.28,0.075,269.2
2022-07-05T12:22:03,42.805,6.029,-0.057,-0.015,-0.033,106.0,106.0,102.0,13.4,1505.2,326.0,-0.7,1.8,2470.897,13.28,0.058,255.3
2022-07-05T12:25:03,42.805,6.029,-0.06,-0.029,-0.005,105.0,103.0,105.0,13.4,1505.2,321.3,-0.8,1.9,2470.872,13.28,0.066,244.2
2022-07-05T12:28:03,42.805,6.029,-0.044,-0.004,-0.036,106.0,105.0,102.0,13.4,1505.2,333.1,-0.8,1.8,2470.931,13.28,0.044,264.8
2022-07-05T12:31:03,42.805,6.029,-0.071,-0.011,0.006,105.0,104.0,103.0,13.4,1505.2,329.6,-0.7,1.8,2470.844,13.28,0.071,261.2
2022-07-05T12:34:03,42.805,6.029,-0.053,0.009,-0.032,105.0,104.0,102.0,13.4,1505.2,323.7,-0.8,1.8,2470.866,13.28,0.053,279.6
2022-07-05T12:37:03,42.805,6.029,-0.086,-0.005,-0.02,104.0,104.0,104.0,13.4,1505.2,324.2,-0.8,1.8,2470.878,13.28,0.086,266.7
2022-07-05T12:40:03,42.805,6.029,-0.049,-0.002,-0.025,104.0,105.0,102.0,13.4,1505.2,323.6,-0.8,1.8,2470.832,13.28,0.049,267.7
2022-07-05T12:43:03,42.805,6.029,-0.056,-0.005,-0.011,107.0,104.0,102.0,13.3,1505.2,323.9,-0.7,1.8,2470.88,13.28,0.056,264.9
2022-07-05T12:46:03,42.805,6.029,-0.069,0.007,-0.022,106.0,105.0,102.0,13.4,1505.2,326.3,-0.8,1.8,2470.901,13.28,0.069,275.8
2022-07-05T12:49:03,42.805,6.029,-0.064,0.016,-0.036,106.0,105.0,103.0,13.4,1505.2,329.3,-0.8,1.8,2470.868,13.28,0.065,284.0
2022-07-05T12:52:03,42.805,6.029,-0.04,0.002,-0.038,105.0,104.0,102.0,13.4,1505.2,322.6,-0.8,1.8,2470.885,13.28,0.04,272.9
2022-07-05T12:55:03,42.805,6.029,-0.054,-0.015,-0.035,105.0,104.0,101.0,13.4,1505.2,322.2,-0.8,1.9,2470.891,13.28,0.056,254.5
2022-07-05T12:58:03,42.805,6.029,-0.081,-0.006,-0.042,105.0,105.0,103.0,13.4,1505.2,319.9,-0.7,1.8,2470.874,13.28,0.081,265.8
2022-07-05T13:04:03,42.805,6.029,-0.068,0.011,-0.009,106.0,105.0,103.0,13.4,1505.2,329.1,-0.8,1.8,2470.9,13.28,0.068,279.2
2022-07-05T13:07:03,42.805,6.029,-0.076,0.009,-0.034,105.0,105.0,102.0,13.4,1505.2,329.8,-0.7,1.8,2470.885,13.28,0.076,276.8
2022-07-05T13:10:03,42.805,6.029,-0.064,-0.011,-0.016,105.0,104.0,103.0,13.3,1505.2,325.2,-0.8,1.8,2470.904,13.28,0.064,260.2
2022-07-05T13:13:03,42.805,6.029,-0.05,-0.021,-0.022,106.0,104.0,103.0,13.4,1505.2,322.8,-0.8,1.8,2470.87,13.28,0.054,247.2
2022-07-05T13:16:03,42.805,6.029,-0.056,-0.009,-0.034,105.0,105.0,103.0,13.4,1505.2,328.7,-0.7,1.8,2470.923,13.28,0.056,260.9
2022-07-05T13:19:03,42.805,6.029,-0.046,-0.006,-0.034,106.0,104.0,104.0,13.4,1505.2,332.9,-0.7,1.8,2470.879,13.28,0.046,262.6
2022-07-05T13:22:03,42.805,6.029,-0.054,-0.003,-0.059,105.0,105.0,102.0,13.4,1505.2,329.7,-0.7,1.8,2470.875,13.28,0.054,266.8
2022-07-05T13:25:03,42.805,6.029,-0.068,0.002,-0.002,105.0,104.0,103.0,13.3,1505.2,324.8,-0.8,1.8,2470.846,13.28,0.068,271.7
2022-07-05T13:28:03,42.805,6.029,-0.081,-0.019,-0.043,105.0,104.0,103.0,13.3,1505.2,321.5,-0.7,1.8,2470.83,13.28,0.083,256.8
2022-07-05T13:31:03,42.805,6.029,-0.071,0.003,-0.027,105.0,104.0,102.0,13.3,1505.2,328.0,-0.8,1.8,2470.894,13.28,0.071,272.4
2022-07-05T13:34:03,42.805,6.029,-0.049,0.004,-0.022,104.0,104.0,102.0,13.4,1505.2,321.5,-0.7,1.8,2470.845,13.28,0.049,274.7
2022-07-05T13:37:03,42.805,6.029,-0.051,0.002,-0.016,105.0,104.0,103.0,13.4,1505.2,326.7,-0.8,1.8,2470.878,13.28,0.051,272.2
2022-07-05T13:40:03,42.805,6.029,-0.091,-0.007,-0.037,105.0,105.0,102.0,13.3,1505.2,325.7,-0.7,1.8,2470.845,13.28,0.091,265.6
2022-07-05T13:43:03,42.805,6.029,-0.072,0.002,-0.033,105.0,104.0,102.0,13.4,1505.2,326.0,-0.8,1.8,2470.856,13.28,0.072,271.6
2022-07-05T13:46:03,42.805,6.029,-0.05,0.007,-0.013,105.0,105.0,102.0,13.4,1505.2,327.0,-0.8,1.8,2470.845,13.28,0.05,278.0
2022-07-05T13:49:03,42.805,6.029,-0.062,0.0,-0.029,106.0,104.0,102.0,13.4,1505.2,326.9,-0.8,1.8,2470.87,13.28,0.061,270.0
2022-07-05T13:52:03,42.805,6.029,-0.054,0.003,-0.042,106.0,106.0,103.0,13.4,1505.2,327.5,-0.8,1.8,2470.861,13.28,0.054,273.2
2022-07-05T13:55:03,42.805,6.029,-0.051,0.002,-0.035,105.0,104.0,103.0,13.3,1505.2,328.2,-0.8,1.8,2470.817,13.28,0.051,272.2
2022-07-05T13:58:03,42.805,6.029,-0.071,-0.01,-0.006,106.0,105.0,102.0,13.4,1505.2,325.4,-0.8,1.8,2470.833,13.28,0.071,262.0
2022-07-05T14:04:03,42.805,6.029,-0.028,0.002,0.003,104.0,106.0,104.0,13.4,1505.2,322.8,-0.8,1.8,2470.869,13.28,0.028,274.1
2022-07-05T14:07:03,42.805,6.029,-0.058,0.014,-0.04,105.0,105.0,102.0,13.4,1505.2,328.5,-0.8,1.9,2470.895,13.28,0.059,283.6
2022-07-05T14:10:03,42.805,6.029,-0.059,0.006,-0.043,104.0,105.0,102.0,13.3,1505.2,320.1,-0.8,1.8,2470.843,13.28,0.059,275.8
2022-07-05T14:13:03,42.805,6.029,-0.062,0.0,-0.044,105.0,104.0,103.0,13.4,1505.2,331.4,-0.8,1.9,2470.858,13.28,0.061,270.0
2022-07-05T14:16:03,42.805,6.029,-0.047,0.003,-0.037,105.0,104.0,102.0,13.4,1505.2,332.4,-0.8,1.8,2470.853,13.28,0.047,273.6
2022-07-05T14:19:03,42.805,6.029,-0.056,0.0,-0.044,105.0,105.0,103.0,13.4,1505.2,326.7,-0.8,1.8,2470.887,13.28,0.056,270.0
2022-07-05T14:22:03,42.805,6.029,-0.045,0.028,-0.018,105.0,105.0,102.0,13.4,1505.2,332.0,-0.7,1.8,2470.891,13.28,0.053,301.9
2022-07-05T14:25:03,42.805,6.029,-0.053,0.006,-0.057,105.0,104.0,102.0,13.4,1505.2,321.9,-0.7,1.8,2470.871,13.28,0.053,276.5
2022-07-05T14:28:03,42.805,6.029,-0.045,-0.008,-0.023,105.0,104.0,102.0,13.4,1505.2,327.2,-0.7,1.8,2470.831,13.28,0.045,259.9
2022-07-05T14:31:03,42.805,6.029,-0.058,0.015,-0.025,105.0,104.0,103.0,13.3,1505.2,323.8,-0.7,1.8,2470.838,13.28,0.059,284.5
2022-07-05T14:34:03,42.805,6.029,-0.071,-0.004,-0.049,104.0,105.0,103.0,13.3,1505.2,327.5,-0.7,1.8,2470.856,13.28,0.071,266.8
2022-07-05T14:37:03,42.805,6.029,-0.052,-0.016,0.001,105.0,105.0,103.0,13.3,1505.2,322.8,-0.8,1.8,2470.82,13.28,0.054,252.9
2022-07-05T14:40:03,42.805,6.029,-0.073,0.014,-0.023,106.0,104.0,102.0,13.4,1505.2,329.1,-0.8,1.8,2470.823,13.28,0.074,280.9
2022-07-05T14:43:03,42.805,6.029,-0.072,0.003,-0.034,104.0,104.0,102.0,13.3,1505.2,322.4,-0.7,1.8,2470.807,13.28,0.072,272.4
2022-07-05T14:46:03,42.805,6.029,-0.054,-0.015,-0.036,104.0,106.0,102.0,13.4,1505.2,321.8,-0.7,1.8,2470.834,13.28,0.056,254.5
2022-07-05T14:49:03,42.805,6.029,-0.074,0.009,-0.05,105.0,105.0,101.0,13.4,1505.2,321.9,-0.8,1.8,2470.809,13.28,0.074,276.9
2022-07-05T14:52:03,42.805,6.029,-0.036,0.002,0.002,104.0,105.0,103.0,13.4,1505.2,320.9,-0.7,1.8,2470.838,13.28,0.036,273.2
2022-07-05T14:55:03,42.805,6.029,-0.051,0.013,-0.032,105.0,105.0,101.0,13.4,1505.2,324.8,-0.8,1.8,2470.809,13.29,0.052,284.3
2022-07-05T14:58:03,42.805,6.029,-0.074,0.014,-0.042,106.0,104.0,103.0,13.3,1505.2,329.4,-0.8,1.8,2470.768,13.28,0.075,280.7
2022-07-05T15:01:03,42.805,6.029,-0.07,0.01,-0.009,105.0,104.0,102.0,13.4,1505.2,319.7,-0.8,1.9,2470.805,13.28,0.07,278.1
2022-07-05T15:04:03,42.805,6.029,-0.056,0.01,-0.047,106.0,105.0,103.0,13.4,1505.2,325.4,-0.7,1.8,2470.821,13.28,0.056,280.1
2022-07-05T15:07:03,42.805,6.029,-0.084,0.011,-0.055,106.0,104.0,102.0,13.4,1505.2,329.6,-0.8,1.8,2470.745,13.28,0.084,277.5
2022-07-05T15:10:03,42.805,6.029,-0.053,-0.02,-0.029,105.0,105.0,102.0,13.3,1505.2,326.1,-0.8,1.8,2470.813,13.28,0.056,249.3
2022-07-05T15:13:03,42.805,6.029,-0.065,0.011,-0.036,106.0,106.0,102.0,13.4,1505.2,327.3,-0.7,1.8,2470.787,13.28,0.065,279.6
2022-07-05T15:16:03,42.805,6.029,-0.078,0.0,-0.033,105.0,104.0,102.0,13.3,1505.2,326.9,-0.8,1.8,2470.798,13.29,0.077,270.0
2022-07-05T15:19:03,42.805,6.029,-0.085,0.006,-0.013,105.0,105.0,104.0,13.3,1505.2,326.8,-0.7,1.8,2470.785,13.28,0.085,274.0
2022-07-05T15:22:03,42.805,6.029,-0.071,0.015,-0.042,105.0,104.0,102.0,13.3,1505.2,328.5,-0.7,1.9,2470.81,13.28,0.072,281.9
2022-07-05T15:25:03,42.805,6.029,-0.043,0.01,-0.047,106.0,105.0,102.0,13.3,1505.2,324.8,-0.7,1.8,2470.817,13.29,0.044,283.1
2022-07-05T15:28:03,42.805,6.029,-0.058,0.014,0.001,106.0,103.0,103.0,13.3,1505.2,326.0,-0.7,1.8,2470.798,13.29,0.059,283.6
2022-07-05T15:31:03,42.805,6.029,-0.07,0.001,-0.016,106.0,104.0,103.0,13.4,1505.2,324.1,-0.8,1.9,2470.837,13.29,0.07,270.8
2022-07-05T15:34:03,42.805,6.029,-0.046,0.023,-0.031,105.0,105.0,103.0,13.4,1505.2,327.0,-0.8,1.8,2470.746,13.29,0.051,296.6
2022-07-05T15:37:03,42.805,6.029,-0.062,0.007,-0.054,105.0,105.0,102.0,13.3,1505.2,322.4,-0.7,1.8,2470.811,13.29,0.062,276.4
2022-07-05T15:40:03,42.805,6.029,-0.054,0.017,-0.023,106.0,105.0,102.0,13.4,1505.2,328.6,-0.8,1.8,2470.814,13.29,0.056,287.5
2022-07-05T15:43:03,42.805,6.029,-0.055,-0.001,-0.06,105.0,105.0,102.0,13.4,1505.2,323.5,-0.7,1.8,2470.799,13.28,0.055,269.0
2022-07-05T15:46:03,42.805,6.029,-0.061,0.021,-0.04,106.0,105.0,102.0,13.3,1505.2,332.7,-0.8,1.8,2470.801,13.29,0.064,289.0
2022-07-05T15:49:03,42.805,6.029,-0.066,0.021,-0.06,105.0,105.0,102.0,13.4,1505.2,325.7,-0.7,1.8,2470.774,13.29,0.069,287.6
2022-07-05T15:52:03,42.805,6.029,-0.041,0.027,-0.016,106.0,105.0,103.0,13.3,1505.2,329.6,-0.8,1.8,2470.807,13.29,0.049,303.4
2022-07-05T15:55:03,42.805,6.029,-0.067,0.029,-0.038,107.0,105.0,103.0,13.4,1505.2,325.7,-0.7,1.8,2470.794,13.28,0.073,293.4
2022-07-05T15:58:03,42.805,6.029,-0.053,0.026,-0.012,105.0,105.0,103.0,13.4,1505.2,330.0,-0.8,1.8,2470.796,13.29,0.059,296.1
2022-07-05T16:04:03,42.805,6.029,-0.048,0.018,-0.04,105.0,105.0,102.0,13.4,1505.2,330.7,-0.8,1.8,2470.838,13.28,0.051,290.6
2022-07-05T16:07:03,42.805,6.029,-0.044,0.024,-0.004,106.0,105.0,103.0,13.3,1505.2,331.6,-0.8,1.8,2470.845,13.28,0.05,298.6
2022-07-05T16:10:03,42.805,6.029,-0.041,0.012,-0.025,104.0,105.0,103.0,13.4,1505.2,323.7,-0.7,1.8,2470.81,13.28,0.042,286.3
2022-07-05T16:13:03,42.805,6.029,-0.048,0.006,0.004,106.0,105.0,102.0,13.4,1505.2,319.7,-0.8,1.8,2470.814,13.28,0.048,277.1
2022-07-05T16:16:03,42.805,6.029,-0.047,0.005,-0.062,108.0,105.0,103.0,13.3,1505.2,325.1,-0.8,1.8,2470.823,13.28,0.047,276.1
2022-07-05T16:19:03,42.805,6.029,-0.083,0.017,-0.018,105.0,105.0,102.0,13.4,1505.2,321.3,-0.8,1.8,2470.831,13.28,0.084,281.6
2022-07-05T16:22:03,42.805,6.029,-0.053,0.031,-0.015,104.0,106.0,103.0,13.3,1505.2,330.0,-0.8,1.8,2470.82,13.28,0.061,300.3
2022-07-05T16:25:03,42.805,6.029,-0.058,0.014,-0.035,105.0,104.0,103.0,13.4,1505.2,325.2,-0.8,1.8,2470.779,13.28,0.059,283.6
2022-07-05T16:28:03,42.805,6.029,-0.055,0.011,-0.039,105.0,105.0,102.0,13.4,1505.2,324.1,-0.8,1.8,2470.807,13.28,0.056,281.3
2022-07-05T16:31:03,42.805,6.029,-0.055,0.014,-0.012,107.0,105.0,103.0,13.4,1505.2,320.0,-0.7,1.8,2470.826,13.28,0.056,284.3
2022-07-05T16:34:03,42.805,6.029,-0.056,0.002,-0.049,104.0,105.0,103.0,13.4,1505.2,325.3,-0.8,1.8,2470.764,13.29,0.056,272.0
2022-07-05T16:37:03,42.805,6.029,-0.061,0.0,-0.03,105.0,106.0,105.0,13.4,1505.2,318.7,-0.8,1.8,2470.791,13.29,0.06,270.0
2022-07-05T16:40:03,42.805,6.029,-0.067,0.0,-0.033,106.0,106.0,103.0,13.4,1505.2,332.4,-0.8,1.8,2470.758,13.29,0.066,270.0
2022-07-05T16:43:03,42.805,6.029,-0.062,0.01,-0.042,106.0,105.0,102.0,13.4,1505.2,324.8,-0.8,1.8,2470.792,13.29,0.062,279.2
2022-07-05T16:46:03,42.805,6.029,-0.06,0.013,-0.045,106.0,107.0,103.0,13.4,1505.2,320.2,-0.8,1.8,2470.75,13.29,0.061,282.2
2022-07-05T16:49:03,42.805,6.029,-0.038,0.013,-0.008,105.0,106.0,103.0,13.3,1505.2,330.8,-0.8,1.8,2470.796,13.29,0.04,288.9
2022-07-05T16:52:03,42.805,6.029,-0.072,0.019,-0.024,105.0,105.0,102.0,13.4,1505.2,322.8,-0.7,1.8,2470.771,13.29,0.074,284.8
2022-07-05T16:55:03,42.805,6.029,-0.03,0.02,-0.026,107.0,104.0,103.0,13.4,1505.2,333.9,-0.8,1.8,2470.767,13.29,0.036,303.7
2022-07-05T16:58:03,42.805,6.029,-0.056,0.03,-0.013,104.0,105.0,104.0,13.3,1505.2,325.7,-0.8,1.8,2470.777,13.29,0.063,298.2
2022-07-05T17:04:03,42.805,6.029,-0.043,0.044,-0.034,106.0,104.0,103.0,13.4,1505.2,332.9,-0.8,1.8,2470.84,13.28,0.061,315.7
2022-07-05T17:07:03,42.805,6.029,-0.055,0.022,-0.022,106.0,104.0,103.0,13.4,1505.2,325.5,-0.8,1.8,2470.814,13.28,0.059,291.8
2022-07-05T17:10:03,42.805,6.029,-0.068,0.014,-0.056,106.0,104.0,102.0,13.4,1505.2,324.6,-0.8,1.8,2470.79,13.28,0.069,281.6
2022-07-05T17:13:03,42.805,6.029,-0.034,0.004,-0.038,105.0,106.0,102.0,13.4,1505.2,326.0,-0.7,1.8,2470.82,13.28,0.034,276.7
2022-07-05T17:16:03,42.805,6.029,-0.055,0.025,-0.05,105.0,105.0,102.0,13.4,1505.2,329.8,-0.8,1.8,2470.828,13.28,0.06,294.4
2022-07-05T17:19:03,42.805,6.029,-0.045,0.008,-0.017,105.0,105.0,103.0,13.4,1505.2,325.8,-0.7,1.8,2470.761,13.28,0.045,280.1
2022-07-05T17:22:03,42.805,6.029,-0.055,-0.004,0.002,106.0,104.0,103.0,13.4,1505.2,321.2,-0.8,1.8,2470.839,13.28,0.055,265.8
2022-07-05T17:25:03,42.805,6.029,-0.064,0.008,-0.029,105.0,104.0,103.0,13.4,1505.2,322.6,-0.8,1.8,2470.807,13.29,0.064,277.1
2022-07-05T17:28:03,42.805,6.029,-0.06,0.014,-0.025,105.0,105.0,102.0,13.3,1505.2,326.8,-0.8,1.8,2470.814,13.29,0.061,283.1
2022-07-05T17:31:03,42.805,6.029,-0.049,0.027,-0.015,106.0,106.0,103.0,13.4,1505.2,327.3,-0.8,1.8,2470.805,13.29,0.055,298.9
2022-07-05T17:34:03,42.805,6.029,-0.065,0.035,-0.03,105.0,104.0,103.0,13.4,1505.2,328.2,-0.7,1.8,2470.814,13.29,0.073,298.3
2022-07-05T17:37:03,42.805,6.029,-0.061,0.029,-0.042,105.0,104.0,101.0,13.4,1505.2,329.6,-0.8,1.8,2470.815,13.29,0.067,295.4
2022-07-05T17:40:03,42.805,6.029,-0.052,0.004,-0.046,105.0,105.0,103.0,13.4,1505.2,321.5,-0.8,1.8,2470.789,13.29,0.052,274.4
2022-07-05T17:43:03,42.805,6.029,-0.046,0.002,-0.015,105.0,105.0,102.0,13.4,1505.2,322.8,-0.7,1.8,2470.783,13.29,0.046,272.5
2022-07-05T17:46:03,42.805,6.029,-0.034,0.01,-0.02,105.0,105.0,103.0,13.4,1505.2,326.3,-0.7,1.8,2470.788,13.29,0.035,286.4
2022-07-05T17:49:03,42.805,6.029,-0.046,0.012,-0.01,106.0,105.0,103.0,13.4,1505.2,332.2,-0.7,1.8,2470.767,13.28,0.047,284.6
2022-07-05T17:52:03,42.805,6.029,-0.057,-0.002,-0.031,106.0,104.0,104.0,13.4,1505.2,330.4,-0.7,1.8,2470.801,13.29,0.057,268.0
2022-07-05T17:55:03,42.805,6.029,-0.038,0.01,-0.006,105.0,106.0,102.0,13.4,1505.2,325.7,-0.8,1.8,2470.814,13.29,0.039,284.7
2022-07-05T17:58:03,42.805,6.029,-0.058,0.006,-0.035,105.0,105.0,104.0,13.4,1505.2,329.2,-0.8,1.8,2470.781,13.29,0.058,275.9
2022-07-05T18:04:03,42.805,6.029,-0.046,0.019,-0.06,104.0,105.0,103.0,13.4,1505.2,328.6,-0.8,1.8,2470.818,13.28,0.049,292.4
2022-07-05T18:07:03,42.805,6.029,-0.077,0.006,-0.052,105.0,104.0,103.0,13.4,1505.2,320.6,-0.7,1.9,2470.831,13.28,0.077,274.5
2022-07-05T18:10:03,42.805,6.029,-0.038,0.018,-0.033,105.0,103.0,103.0,13.4,1505.2,329.2,-0.7,1.8,2470.806,13.28,0.042,295.3
2022-07-05T18:13:03,42.805,6.029,-0.05,0.008,-0.035,105.0,103.0,103.0,13.4,1505.2,333.1,-0.7,1.8,2470.815,13.28,0.05,279.1